GW0189 Weather Reports


time (UTC)temp
F
wind
direction
speed
knots
gust
knots
rain 1hr
in
rain 24hr
in
rain mn
in
humidity
%
barometer
mb
20260506104533 53 292 6.1 10.4 0.00 0.00 0.00 87 1019.1
20260506103032 53 292 4.3 9.6 0.00 0.00 0.00 87 1019.0
20260506101532 53 300 4.3 7.8 0.00 0.00 0.00 88 1018.8
20260506100031 54 260 3.5 7.0 0.00 0.00 0.00 88 1018.9
20260506094531 53 290 3.5 7.8 0.00 0.01 0.00 87 1019.0
20260506093037 53 282 4.3 8.7 0.00 0.01 0.00 87 1018.9
20260506091532 54 296 4.3 7.8 0.00 0.01 0.00 87 1018.9
20260506090032 54 279 4.3 7.8 0.00 0.01 0.00 87 1019.0
20260506084536 54 286 3.5 9.6 0.00 0.04 0.00 87 1018.9
20260506083037 54 360 6.1 10.4 0.00 0.04 0.00 87 1019.1
20260506081533 54 283 7.0 10.4 0.00 0.04 0.00 87 1019.2
20260506073032 54 294 4.3 7.8 0.00 0.07 0.00 87 1018.9
20260506071531 54 304 5.2 9.6 0.00 0.07 0.00 87 1018.8
20260506061532 54 298 7.0 11.3 0.00 0.08 0.07 87 1018.2
20260506044541 55 360 6.1 9.6 0.00 0.11 0.07 87 1017.9
20260506043032 55 282 6.1 9.6 0.00 0.11 0.07 87 1017.9
20260506041546 55 360 6.1 10.4 0.00 0.11 0.07 87 1017.7
20260506040040 55 281 7.0 11.3 0.00 0.11 0.07 86 1017.2
20260506034533 55 360 7.0 12.2 0.00 0.11 0.07 86 1017.2
20260506033035 55 292 6.1 13.0 0.00 0.11 0.07 86 1017.0
20260506031533 55 266 7.0 12.2 0.00 0.11 0.07 86 1017.0
20260506030031 55 239 7.8 12.2 0.00 0.11 0.07 86 1016.8
20260506024536 56 297 7.0 13.0 0.00 0.11 0.07 85 1016.7
20260506023036 56 273 7.0 13.0 0.00 0.11 0.07 85 1016.4
20260506021544 57 258 9.6 14.8 0.00 0.11 0.07 84 1016.3
20260506020034 57 250 8.7 15.6 0.00 0.11 0.07 83 1016.3
20260506014532 57 293 9.6 13.9 0.00 0.11 0.07 83 1016.4
20260506013037 57 292 7.8 13.0 0.00 0.11 0.07 83 1016.5
20260506011558 58 279 7.0 14.8 0.00 0.11 0.07 82 1016.5
20260506010036 58 360 8.7 15.6 0.00 0.11 0.07 81 1016.3
20260506004542 58 360 9.6 15.6 0.00 0.11 0.07 79 1016.5
20260506003034 58 275 11.3 15.6 0.00 0.11 0.07 80 1016.1
20260506001532 58 273 8.7 15.6 0.00 0.11 0.07 81 1015.9
20260506000032 58 281 8.7 16.5 0.00 0.11 0.07 80 1015.9
20260505234534 58 265 8.7 13.9 0.00 0.11 0.07 79 1016.0
20260505233034 59 271 9.6 16.5 0.00 0.11 0.07 77 1016.2
20260505231538 59 244 11.3 16.5 0.00 0.11 0.07 76 1016.1
20260505230034 59 263 9.6 13.9 0.00 0.11 0.07 77 1016.1
20260505224529 59 279 8.7 17.4 0.00 0.11 0.07 77 1016.1
20260505223035 60 290 9.6 15.6 0.00 0.11 0.07 76 1016.2
20260505221534 60 360 10.4 14.8 0.00 0.11 0.07 76 1016.1
20260505220048 60 360 10.4 14.8 0.00 0.11 0.07 77 1016.3
20260505214533 59 267 10.4 15.6 0.00 0.11 0.07 77 1016.3
20260505213032 59 342 9.6 14.8 0.00 0.11 0.07 77 1016.5
20260505211537 60 315 9.6 14.8 0.00 0.11 0.07 79 1016.5
20260505210039 59 360 10.4 14.8 0.00 0.11 0.07 77 1016.4
20260505204531 59 360 8.7 16.5 0.00 0.11 0.07 77 1016.4
20260505203033 59 299 9.6 14.8 0.00 0.11 0.07 77 1016.5
20260505201538 59 360 13.0 18.2 0.00 0.11 0.07 77 1016.5
20260505200035 59 277 10.4 19.1 0.00 0.11 0.07 76 1016.6
20260505194532 58 304 12.2 17.4 0.00 0.11 0.07 78 1016.5
20260505193040 58 273 10.4 15.6 0.00 0.11 0.07 80 1016.4
20260505191534 57 276 8.7 13.0 0.00 0.11 0.07 82 1016.5
20260505190036 56 360 10.4 14.8 0.00 0.11 0.07 83 1016.4
20260505184532 56 360 9.6 17.4 0.00 0.11 0.07 84 1016.2
20260505183043 56 275 10.4 15.6 0.00 0.11 0.07 83 1016.3
20260505181532 56 360 11.3 17.4 0.00 0.11 0.07 84 1016.2
20260505180033 56 287 7.8 14.8 0.00 0.11 0.07 86 1015.9
20260505174536 55 282 11.3 17.4 0.00 0.11 0.07 88 1015.6
20260505173032 54 286 10.4 15.6 0.00 0.11 0.07 89 1015.7
20260505171533 54 279 10.4 15.6 0.00 0.11 0.07 90 1015.7
20260505170032 54 304 9.6 14.8 0.00 0.11 0.07 90 1015.8
20260505164551 54 315 7.8 13.9 0.00 0.11 0.07 91 1015.8
20260505163036 53 291 9.6 13.0 0.00 0.11 0.07 91 1015.7
20260505161542 53 311 8.7 12.2 0.00 0.11 0.07 90 1015.7
20260505153032 52 269 7.0 13.0 0.00 0.11 0.07 90 1015.4
20260505151531 52 304 10.4 14.8 0.00 0.11 0.07 90 1015.3
20260505124544 51 246 6.1 10.4 0.00 0.11 0.07 89 1014.5
20260505123031 51 267 7.8 12.2 0.00 0.11 0.07 89 1014.5
20260505121535 51 258 7.0 12.2 0.00 0.11 0.07 89 1014.5
20260505120043 51 267 6.1 9.6 0.00 0.11 0.07 89 1014.5
20260505114534 51 258 5.2 7.8 0.00 0.11 0.07 89 1014.5
20260505113034 50 263 3.5 7.8 0.00 0.11 0.07 89 1014.7
20260505111534 50 276 3.5 7.8 0.00 0.11 0.07 89 1014.7